Location: Chanteloup
(48.8560°N, 2.7390°E)
Time: 11:08:52
(UTC+00:00)

NOSS 2 (A) - Pass Details

Date: 24 October 2021
Orbit: 273 x 1575 km, 63.3° (Epoch: 06 February)

Event Time Altitude Azimuth Distance (km) Brightness Sun altitude
Rises 17:20:29 0° 320° (NW) 2,297 8.9 -6.9°
Reaches altitude 10° 17:22:42 10° 324° (NW) 1,340 7.7 -7.3°
Maximum altitude 17:25:34 58° 45° (NE) 382 4.3 -7.8°
Drops below altitude 10° 17:28:01 10° 126° (SE) 1,159 6.6 -8.2°
Enters shadow 17:28:49 - 129° (SE) 1,502 7.2 -8.3°
